DELTA 1 DEB

Satellite information

Favourite Embed

Satellite Type and Status

DEBRISIN ORBIT

Key statistics

Satellite DELTA 1 DEB at a glance.

Uptime

17230

Days in orbit

Revolutions

≈ 14.0

Per day

Orbit

SSO

Sun Synchronous Orbit

Inclination

98.7

Latest

Satellite identification and parameters

Extended collection of information and parameters for DELTA 1 DEB.

Object identification

Identified? True

Debris? True

Object name: DELTA 1 DEB

International designator: 1978-026DK

Object number (NORAD): 12266

Object ID (CCSDS): 12266

Country: UNITED STATES OF AMERICA (US)

Current information (Y/N): Y

RCS size: SMALL

Orbital parameters

Period: 103.066 minutes

Inclination: 98.729 deg

SMA: 7281.76 km

Apoapsis: 1010.282 km

Periapsis: 796.967 km

RAAN: 288.169 deg

Eccentricy: 0.0146472

Argument of periapsis: 92.961 deg

Mean anomaly: 268.8326 deg

Mean motion: 13.97166814 rev/day

Mean motion (dot): 0.00002997 rev/day2

B* drag term: 0.0019822 1/REarth

Two-line elements (TLE)

Creation date: May 6, 2025, 3:54 a.m.

Reference frame: TEME

Reference center: EARTH

Epoch: May 5, 2025, 8:58 p.m. UTC

TLE line 0: 0 DELTA 1 DEB

TLE line 1: 1 12266U 78026DK 25125.87391893 .00002997 00000-0 19822-2 0 9994

TLE line 2: 2 12266 98.7290 288.1690 0146472 92.9610 268.8326 13.97166814226998

Live tracking on map

Real-time ground track for satellite DELTA 1 DEB.

In-orbit conjunctions

A list of the most updated potential collisions computed for object DELTA 1 DEB.

Target Orbit TCA Probability of collision Miss distance Type
METEOR 2-5 DEB LEO 2024-12-26 00:03:33 0.0001027643 217.0 (m) DEBRIS
MSX SSO 2024-09-25 12:38:09 0.0001034051 525.0 (m) PAYLOAD
SL-16 R/B LEO 2024-07-25 13:33:02 0.0001056366 363.0 (m) ROCKET BODY

Associated space launch

Earth observation satellite

DELTA 1 DEB was lifted into orbit during the mission ‘Delta 2910 | Landsat 3’, on board a Delta 2910 space rocket.

The launch took place on March 5, 1978, 5:54 p.m. from Space Launch Complex 2W.

For more information about the launch, click the button.

Launch to space Delta 2910 | Landsat 3
Delta 2910 | Landsat 3

Agency: N/A

Status: Launch Successful

Launch date: March 5, 1978, 5:54 p.m. UTC

Rocket: Delta 2910

Launch pad: Space Launch Complex 2W

Location: Vandenberg SFB, CA, USA

...

Latest news about this satellite

There are no fresh news available about this satellite. Check back as we update our databases every day.


Newsletter sign-up

Weekly statistics, charts and insights to help you stay on top of the space industry.